�������l�o���
Date,Time,MP-1(��Sv/h),MP-2(��Sv/h),MP-3(��Sv/h),MP-4(��Sv/h),MP-5(��Sv/h),MP-6(��Sv/h),MP-7(��Sv/h),MP-8(��Sv/h),����,����(m/s),���J
2019/12/20,00:00,0.721,1.041,0.701,1.314,0.915,0.412,0.721,0.683,��쐼,4.0,��
2019/12/20,00:10,0.722,1.044,0.699,1.317,0.914,0.412,0.722,0.682,�쐼,3.4,��
2019/12/20,00:20,0.724,1.042,0.700,1.315,0.911,0.412,0.723,0.684,�쐼,3.4,�L
2019/12/20,00:30,0.721,1.043,0.701,1.313,0.914,0.412,0.722,0.684,�쐼,2.6,��
2019/12/20,00:40,0.723,1.044,0.700,1.316,0.914,0.411,0.722,0.684,�쐼,3.3,��
2019/12/20,00:50,0.722,1.039,0.701,1.313,0.913,0.411,0.722,0.683,���쐼,3.4,��
2019/12/20,01:00,0.723,1.042,0.699,1.317,0.914,0.413,0.721,0.683,�쐼,3.1,��
2019/12/20,01:10,0.723,1.042,0.701,1.315,0.912,0.412,0.723,0.683,��쐼,3.6,��
2019/12/20,01:20,0.723,1.042,0.699,1.316,0.913,0.413,0.722,0.683,��쐼,4.9,��
2019/12/20,01:30,0.722,1.040,0.698,1.314,0.913,0.414,0.722,0.681,��쐼,4.9,��
2019/12/20,01:40,0.722,1.040,0.700,1.317,0.913,0.411,0.722,0.684,��쐼,4.1,��
2019/12/20,01:50,0.721,1.043,0.702,1.317,0.913,0.413,0.719,0.682,��쐼,4.9,��
2019/12/20,02:00,0.723,1.042,0.699,1.314,0.914,0.413,0.722,0.684,�쐼,3.5,��
2019/12/20,02:10,0.721,1.040,0.702,1.313,0.913,0.412,0.723,0.685,���쐼,2.3,��
2019/12/20,02:20,0.722,1.042,0.701,1.316,0.914,0.412,0.722,0.685,��,3.0,��
2019/12/20,02:30,0.722,1.040,0.699,1.315,0.913,0.412,0.722,0.685,���쐼,2.5,��
2019/12/20,02:40,0.722,1.043,0.700,1.313,0.914,0.414,0.721,0.683,�쐼,2.5,��
2019/12/20,02:50,0.724,1.042,0.698,1.312,0.912,0.412,0.720,0.685,��쐼,2.8,��
2019/12/20,03:00,0.722,1.041,0.699,1.315,0.912,0.414,0.721,0.684,��쐼,3.5,��
2019/12/20,03:10,0.722,1.041,0.700,1.316,0.914,0.411,0.721,0.684,��쐼,3.8,��
2019/12/20,03:20,0.723,1.041,0.700,1.313,0.911,0.411,0.721,0.683,��쐼,3.8,��
2019/12/20,03:30,0.722,1.039,0.701,1.313,0.913,0.413,0.721,0.684,��쐼,2.9,��
2019/12/20,03:40,0.723,1.041,0.701,1.315,0.913,0.413,0.723,0.686,��쐼,4.4,��
2019/12/20,03:50,0.724,1.040,0.700,1.316,0.915,0.413,0.723,0.682,��쐼,4.7,��
2019/12/20,04:00,0.724,1.040,0.701,1.314,0.912,0.412,0.723,0.683,�쐼,5.0,��
2019/12/20,04:10,0.723,1.040,0.700,1.312,0.913,0.413,0.721,0.683,��쐼,5.5,��
2019/12/20,04:20,0.723,1.040,0.699,1.315,0.914,0.413,0.723,0.682,��쐼,5.5,��
2019/12/20,04:30,0.722,1.042,0.700,1.313,0.912,0.412,0.723,0.684,��쐼,5.3,��
2019/12/20,04:40,0.722,1.039,0.700,1.315,0.913,0.413,0.721,0.683,��쐼,6.0,��
2019/12/20,04:50,0.722,1.041,0.699,1.313,0.914,0.414,0.721,0.684,��쐼,6.3,��
2019/12/20,05:00,0.724,1.039,0.699,1.316,0.912,0.414,0.723,0.683,��쐼,6.3,��
2019/12/20,05:10,0.722,1.044,0.700,1.317,0.914,0.412,0.725,0.683,�쐼,5.6,��
2019/12/20,05:20,0.722,1.041,0.701,1.315,0.912,0.412,0.723,0.684,�쐼,5.2,��
2019/12/20,05:30,0.722,1.040,0.701,1.314,0.912,0.412,0.725,0.683,�쐼,4.2,��
2019/12/20,05:40,0.723,1.038,0.700,1.315,0.914,0.413,0.723,0.684,���쐼,3.1,��
2019/12/20,05:50,0.724,1.041,0.699,1.314,0.911,0.413,0.724,0.683,��,1.3,��
2019/12/20,06:00,0.724,1.038,0.699,1.312,0.914,0.413,0.721,0.684,-,CALM,��
2019/12/20,06:10,0.723,1.040,0.700,1.314,0.911,0.412,0.723,0.683,�k��,1.0,��
2019/12/20,06:20,0.721,1.042,0.699,1.314,0.912,0.412,0.723,0.683,�k�k��,2.1,��
2019/12/20,06:30,0.723,1.041,0.699,1.311,0.910,0.412,0.724,0.684,�k�k��,1.9,��
2019/12/20,06:40,0.723,1.038,0.699,1.313,0.914,0.412,0.724,0.684,���쐼,2.2,��
2019/12/20,06:50,0.723,1.040,0.699,1.313,0.913,0.413,0.725,0.683,���쐼,1.9,��
2019/12/20,07:00,0.723,1.041,0.701,1.314,0.914,0.412,0.722,0.683,�쐼,0.5,��
2019/12/20,07:10,0.723,1.041,0.699,1.313,0.910,0.413,0.725,0.682,�쐼,4.1,��
2019/12/20,07:20,0.724,1.039,0.698,1.313,0.914,0.413,0.723,0.683,�쐼,4.3,��
2019/12/20,07:30,0.724,1.041,0.700,1.316,0.912,0.411,0.724,0.683,���쐼,3.0,��
2019/12/20,07:40,0.724,1.041,0.699,1.314,0.911,0.412,0.724,0.683,���k��,4.0,��
2019/12/20,07:50,0.724,1.042,0.699,1.315,0.913,0.412,0.724,0.684,���k��,4.3,��
2019/12/20,08:00,0.722,1.040,0.698,1.317,0.913,0.412,0.725,0.685,���k��,4.9,��
2019/12/20,08:10,0.723,1.042,0.700,1.316,0.912,0.412,0.724,0.683,���k��,5.5,��
2019/12/20,08:20,0.723,1.041,0.698,1.316,0.913,0.412,0.722,0.685,���k��,6.0,��
2019/12/20,08:30,0.723,1.041,0.698,1.314,0.912,0.410,0.722,0.683,�k��,6.0,��
2019/12/20,08:40,0.725,1.044,0.699,1.314,0.914,0.411,0.721,0.684,�k��,5.0,��
2019/12/20,08:50,0.724,1.039,0.698,1.314,0.914,0.412,0.721,0.685,�k��,4.3,��
2019/12/20,09:00,0.724,1.040,0.698,1.316,0.913,0.412,0.723,0.684,�k��,5.2,��
2019/12/20,09:10,0.722,1.040,0.696,1.312,0.912,0.411,0.722,0.683,�k��,6.1,��
2019/12/20,09:20,0.722,1.043,0.698,1.316,0.913,0.411,0.721,0.684,�k��,6.9,��
2019/12/20,09:30,0.721,1.038,0.696,1.315,0.915,0.412,0.724,0.685,�k��,5.8,��
2019/12/20,09:40,0.723,1.040,0.697,1.316,0.913,0.412,0.719,0.686,�k��,5.2,��
2019/12/20,09:50,0.724,1.041,0.701,1.317,0.915,0.413,0.722,0.684,���k��,6.4,��
2019/12/20,10:00,0.722,1.040,0.702,1.316,0.914,0.412,0.722,0.685,�k��,5.8,��
2019/12/20,10:10,0.721,1.033,0.702,1.317,0.915,0.412,0.722,0.684,���k��,5.2,��
2019/12/20,10:20,0.721,-,0.699,1.317,0.916,0.412,0.720,0.684,�k��,6.3,��
2019/12/20,10:30,0.723,1.034,0.702,1.317,0.914,0.410,0.722,0.685,�k��,7.8,��
2019/12/20,10:40,0.725,1.035,0.701,1.315,0.916,0.412,0.722,0.684,�k��,6.3,��
2019/12/20,10:50,0.724,1.035,0.702,1.317,0.915,0.413,0.724,0.684,�k��,6.9,��
2019/12/20,11:00,0.723,1.036,0.701,1.317,0.916,0.413,0.722,0.685,�k��,8.2,��
2019/12/20,11:10,0.723,1.034,0.700,1.318,0.913,0.413,0.723,0.684,�k��,6.6,��
2019/12/20,11:20,0.721,1.033,0.701,1.318,0.917,0.412,0.723,0.683,���k��,7.5,��
2019/12/20,11:30,0.724,-,0.700,1.317,0.916,0.412,0.722,0.685,���k��,7.1,��
2019/12/20,11:40,0.721,-,0.701,1.318,0.917,0.413,0.722,0.684,���k��,6.7,��
2019/12/20,11:50,0.719,1.028,0.701,1.316,0.917,0.413,0.721,0.684,���k��,4.9,��
2019/12/20,12:00,0.722,1.036,0.700,1.317,0.916,0.413,0.723,0.686,�k��,6.6,��
2019/12/20,12:10,0.721,1.039,0.702,1.318,0.916,0.413,0.721,0.686,�k��,6.4,��
2019/12/20,12:20,0.723,1.040,0.702,1.318,0.918,0.413,0.723,0.686,�k��,7.4,��
2019/12/20,12:30,0.725,1.039,0.703,1.317,0.918,0.412,0.722,0.685,���k��,7.1,��
2019/12/20,12:40,0.723,1.037,0.704,1.318,0.916,0.413,0.723,0.686,�k��,5.5,��
2019/12/20,12:50,0.724,1.042,0.702,1.317,0.916,0.412,0.723,0.686,���k��,5.6,��
2019/12/20,13:00,0.725,1.045,0.700,1.320,0.919,0.412,0.724,0.686,�k��,4.6,��
2019/12/20,13:10,0.725,1.041,0.701,1.318,0.917,0.412,0.721,0.683,�k�k��,4.0,��
2019/12/20,13:20,0.722,1.042,0.699,1.320,0.918,0.413,0.721,0.682,�k,2.8,��
2019/12/20,13:30,0.721,1.041,0.703,1.320,0.917,0.413,0.723,0.681,�k��,8.5,��
2019/12/20,13:40,0.723,1.041,0.701,1.319,0.916,0.413,0.723,-,���k��,7.7,��
2019/12/20,13:50,0.720,1.040,0.702,1.319,0.918,0.411,0.722,0.683,���k��,9.1,��
2019/12/20,14:00,0.721,1.041,0.701,1.320,0.918,0.412,0.722,0.682,�k��,5.8,��
2019/12/20,14:10,0.722,1.041,0.704,1.319,0.918,0.413,0.722,0.683,���k��,6.3,��
2019/12/20,14:20,0.722,1.041,0.701,1.319,0.918,0.412,0.721,0.683,�k��,8.8,��
2019/12/20,14:30,0.724,1.040,0.700,1.320,0.917,0.412,0.720,0.687,�k��,7.1,��
2019/12/20,14:40,0.722,1.040,0.700,1.320,0.917,0.413,0.723,0.686,�k��,7.8,��
2019/12/20,14:50,0.724,1.046,0.700,1.319,0.917,0.412,0.722,0.684,�k��,6.6,��
2019/12/20,15:00,0.723,1.050,0.702,1.322,0.915,0.413,0.722,-,�k��,5.8,��
2019/12/20,15:10,0.722,1.045,0.700,1.320,0.916,0.412,0.722,-,�k��,5.8,��
2019/12/20,15:20,0.722,1.046,0.701,1.319,0.915,0.412,0.721,0.685,�k��,4.6,��
2019/12/20,15:30,0.723,1.046,0.703,1.318,0.918,0.411,0.722,0.683,�k��,4.4,��
2019/12/20,15:40,0.723,1.045,0.701,1.320,0.916,0.411,0.722,0.683,���k��,5.3,��
2019/12/20,15:50,0.723,1.048,0.700,1.320,0.915,0.413,0.721,0.685,���k��,4.5,��
2019/12/20,16:00,0.722,1.047,0.701,1.318,0.917,0.412,0.722,0.687,���k��,5.5,��
2019/12/20,16:10,0.721,1.045,0.700,1.320,0.916,0.411,0.722,0.685,�k��,4.4,��
2019/12/20,16:20,0.724,1.048,0.701,1.320,0.918,0.412,0.721,0.685,�k��,4.7,��
2019/12/20,16:30,0.722,1.047,0.701,1.319,0.914,0.412,0.723,0.685,�k��,4.1,��
2019/12/20,16:40,0.723,1.047,0.700,1.319,0.917,0.412,0.723,0.683,�k��,4.5,��
2019/12/20,16:50,0.721,1.049,0.701,1.320,0.916,0.412,0.721,0.686,�k�k��,3.8,��
2019/12/20,17:00,0.722,1.046,0.701,1.317,0.913,0.411,0.720,0.684,�k��,5.0,��
2019/12/20,17:10,0.723,1.047,0.703,1.320,0.917,0.411,0.723,0.682,�k�k��,4.9,��
2019/12/20,17:20,0.721,1.047,0.702,1.318,0.915,0.412,0.723,0.685,�k�k��,4.6,��
2019/12/20,17:30,0.721,1.047,0.701,1.317,0.915,0.412,0.723,0.684,�k��,4.9,��
2019/12/20,17:40,0.722,1.047,0.700,1.318,0.915,0.412,0.723,0.685,�k��,5.2,��
2019/12/20,17:50,0.721,1.046,0.701,1.319,0.915,0.411,0.723,0.684,�k��,4.6,��
2019/12/20,18:00,0.720,1.047,0.700,1.319,0.914,0.410,0.723,0.685,�k,5.6,��
2019/12/20,18:10,0.720,1.046,0.701,1.318,0.915,0.410,0.723,0.684,�k�k��,6.6,��
2019/12/20,18:20,0.720,1.043,0.701,1.318,0.916,0.411,0.723,0.684,�k,6.6,��
2019/12/20,18:30,0.720,1.046,0.700,1.318,0.915,0.410,0.722,0.684,�k,6.0,��
2019/12/20,18:40,0.721,1.044,0.700,1.318,0.914,0.411,0.723,0.685,�k,7.1,��
2019/12/20,18:50,0.720,1.046,0.700,1.318,0.916,0.412,0.721,0.685,�k,8.2,��
2019/12/20,19:00,0.720,1.046,0.700,1.318,0.916,0.410,0.720,0.686,�k,7.5,��
2019/12/20,19:10,0.720,1.046,0.702,1.317,0.915,0.410,0.720,0.682,�k,7.4,��
2019/12/20,19:20,0.720,1.046,0.701,1.318,0.915,0.410,0.723,0.684,�k,7.2,��
2019/12/20,19:30,0.719,1.049,0.702,1.318,0.915,0.410,0.722,0.683,�k,7.5,��
2019/12/20,19:40,0.720,1.046,0.699,1.320,0.916,0.410,0.721,0.685,�k,7.7,��
2019/12/20,19:50,0.719,1.045,0.699,1.318,0.917,0.410,0.721,0.684,�k�k��,6.1,��
2019/12/20,20:00,0.718,1.043,0.700,1.318,0.915,0.412,0.722,0.684,�k�k��,6.0,��
2019/12/20,20:10,0.719,1.048,0.701,1.318,0.914,0.409,0.721,0.683,�k�k��,5.5,��
2019/12/20,20:20,0.719,1.047,0.700,1.318,0.917,0.409,0.721,0.683,�k�k��,7.5,��
2019/12/20,20:30,0.718,1.045,0.699,1.321,0.916,0.409,0.722,0.683,�k�k��,7.1,��
2019/12/20,20:40,0.718,1.047,0.700,1.318,0.915,0.409,0.721,0.685,�k�k��,8.0,��
2019/12/20,20:50,0.719,1.045,0.701,1.318,0.914,0.410,0.721,0.685,�k�k��,7.7,��
2019/12/20,21:00,0.719,1.044,0.701,1.317,0.915,0.409,0.721,0.684,�k,8.3,��
2019/12/20,21:10,0.720,1.047,0.698,1.317,0.915,0.409,0.722,0.684,�k�k��,8.8,��
2019/12/20,21:20,0.718,1.044,0.699,1.319,0.915,0.409,0.722,0.684,�k�k��,10.2,��
2019/12/20,21:30,0.720,1.044,0.698,1.317,0.915,0.408,0.721,0.683,�k�k��,10.7,��
2019/12/20,21:40,0.720,1.042,0.699,1.317,0.917,0.408,0.721,0.684,�k�k��,10.4,��
2019/12/20,21:50,0.719,1.045,0.698,1.319,0.914,0.407,0.722,0.684,�k�k��,10.2,��
2019/12/20,22:00,0.718,1.043,0.698,1.317,0.915,0.408,0.721,0.682,�k�k��,9.6,��
2019/12/20,22:10,0.718,1.045,0.697,1.319,0.915,0.407,0.723,0.684,�k�k��,7.7,��
2019/12/20,22:20,0.717,1.046,0.698,1.316,0.914,0.409,0.722,0.684,�k��,6.3,��
2019/12/20,22:30,0.718,1.045,0.698,1.318,0.916,0.410,0.721,0.683,�k��,5.0,��
2019/12/20,22:40,0.719,1.045,0.700,1.319,0.915,0.410,0.720,0.683,�k��,5.2,��
2019/12/20,22:50,0.720,1.047,0.701,1.318,0.915,0.409,0.721,0.684,�k��,5.2,��
2019/12/20,23:00,0.718,1.044,0.699,1.318,0.914,0.409,0.722,0.683,�k��,4.5,��
2019/12/20,23:10,0.718,1.047,0.699,1.318,0.912,0.409,0.721,0.682,�k��,4.3,��
2019/12/20,23:20,0.718,1.045,0.699,1.317,0.915,0.409,0.719,0.682,���k��,3.4,��
2019/12/20,23:30,0.718,1.045,0.700,1.316,0.915,0.411,0.720,0.684,�k��,2.4,��
2019/12/20,23:40,0.719,1.045,0.700,1.319,0.917,0.410,0.720,0.684,�k��,1.8,��
2019/12/20,23:50,0.720,1.045,0.699,1.317,0.914,0.411,0.721,0.683,�k�k��,2.1,��
